Retour au catalogue

BREEZE-M DEB

ActifHEO
NORAD 41323·DEBRIS·🇷🇺 Russia

Lancé May 17, 2012 depuis Baikonur Cosmodrome

Loading…

Prochains Passages (prochaines 24 heures)

TLE

FraisSource: Space-Track

Époque: Sep 14, 2026, 05:07 UTC

1 41323U 12026K   26257.21359205 -.00000120  00000-0  00000-0 0  9997
2 41323  10.1711 123.1162 4133990  70.3174 329.1345  1.77768369 69469

Suivez BREEZE-M DEB en temps réel avec AllMySat

Download on the App Store